Regional Weather Roundup
Issued by NWS Lake Charles, LA

Home | Current Version | Previous Version | Text Only | Print | Product List | Glossary On
Versions: 1 2 3 4 5 6 7 8 9 10 11 12 13 14 15 16 17 18 19 20 21 22 23 24 25 26
000
ASUS44 KLCH 240010
RWRLCH
RWRLCH
REGIONAL WEATHER ROUNDUP
NATIONAL WEATHER SERVICE LAKE CHARLES LA
700 PM CDT WED APR 23 2014

Note: "fair" indicates few or no clouds below 12,000 feet with no
significant weather and/or obstructions to visibility.


ACROSS SOUTHEAST TEXAS

CITY           SKY/WX    TMP DP  RH WIND       PRES   REMARKS
BEAUMONT       CLEAR     74  65  73 S12       29.87F
BEAUMONT CITY    N/A     74  65  74 SE8       29.87F
ORANGE         CLEAR     75  64  70 S8        29.89S
JASPER         CLEAR     78  63  59 S9        29.87F
$$

ACROSS CENTRAL LOUISIANA

CITY           SKY/WX    TMP DP  RH WIND       PRES   REMARKS
LEESVILLE      PTCLDY    79  57  46 SE7       29.85F
FULLERTON        N/A     80  58  46 CALM      29.84S
ALEXANDRIA INT CLEAR     78  55  44 E6        29.85S
ESLER FIELD    CLEAR     81  55  40 CALM      29.87S
DERIDDER         N/A     81  55  41 SE5       29.87F
OAKDALE        CLEAR     79  60  52 CALM      29.86F
OPELOUSAS        N/A     78  59  52 S3        29.86F
$$

ACROSS SOUTHWEST AND SOUTH CENTRAL LOUISIANA

CITY           SKY/WX    TMP DP  RH WIND       PRES   REMARKS
SULPHUR        CLEAR     76  64  64 S10       29.88F
LAKE CHARLES   CLEAR     75  63  66 S9        29.88S
CHENNAULT INT  CLEAR     77  61  57 S14       29.89S
CAMERON PHI    CLEAR     73  66  78 S9        29.89S
DEQUINCY         N/A     76  62  61 S8        29.87S
JENNINGS         N/A     76  64  66 SW8       29.88S
LAFAYETTE      CLEAR     77  62  59 S10       29.88S
NEW IBERIA     CLEAR     76  63  64 S13       29.89S
ABBEVILLE        N/A     82  64  54 S10       29.89S
PATTERSON      CLEAR     73  64  73 SW10      29.93S
SALT POINT       N/A     76  67  73 CALM      29.90S
$$

SELECTED SITES ACROSS THE REGION

CITY           SKY/WX    TMP DP  RH WIND       PRES   REMARKS
HOUSTON BUSH   MOSUNNY   78  64  61 SE15G22   29.83F
HOUSTON HOBBY  MOSUNNY   76  65  68 S8        29.84F
GALVESTON      MOSUNNY   73  69  87 S13       29.87F
COLLEGE STAT   SUNNY     81  59  47 S14       29.79F
CONROE         SUNNY     78  61  55 SE13      29.84S
HUNTSVILLE     SUNNY     81  60  48 S8        29.81F
LUFKIN         SUNNY     83  64  52 SE15G21   29.82F
SHREVEPORT     PTCLDY    80  58  46 SE7       29.84S
MONROE         CLEAR     77  51  40 CALM      29.89F
NATCHEZ MS     CLEAR     77  46  33 N3        29.89F
BATON ROUGE    CLEAR     82  56  40 CALM      29.87S
N.O. INTL ARPT PTCLDY    79  52  38 NW3       29.89S
SLIDELL        CLEAR     78  54  43 SW3       29.88S
$$

MARINE REPORTS

STATION/POSITION TIME  TEMP    WIND        PRES    VSBY  WAVE
                       AIR SEA DIR/SP/G                  HT/PER
                 (UTC) (F)     (DEG/KT/KT) (MB)    (MI)  (FT/S)
BUOY 30 S HIGH I 0000   71 72  140/ 12/ 14 1011.2F         1/ 2
SEA RIM ST PARK  0000   71     150/ 10/ 11 1012.1F
PORT ARTHUR      0000      72  170/  7/ 10 1011.7F
SABINE PASS N    0000   73 70  170/ 11/ 13 1011.7F
TEXAS POINT      0000   72 72  170/ 11/ 12 1012.0F
CALCASIEU PASS   0000   72 74  200/ 11/ 12 1012.9F
LK CHARLES BEACH 0000   77 72              1012.4S
MARSH ISLAND     2300   76     200/  2/  5   N/A
FRESH WATER LOCK 0000   74 77  160/  7/  9 1012.2F
AMERADA PASS     0000   74 72  190/  3/  5 1012.8R
$$



USA.gov is the U.S. government's official web portal to all federal, state and local government web resources and services.